Location: Taukkyan
(23.1052°N, 94.0030°E)
Time: 10:57:18
(UTC+00:00)

Meteor 2-21 Rocket - Pass Details

Date: 06 July 2020
Orbit: 934 x 969 km, 82.6° (Epoch: 14 August)

Event Time Altitude Azimuth Distance (km) Brightness Sun altitude
Rises 13:19:27 0° 175° (S) 3,643 7.2 -10.1°
Reaches altitude 10° 13:21:59 10° 172° (S) 2,699 6.5 -10.6°
Maximum altitude 13:28:05 63° 93° (E) 1,075 4.5 -11.8°
Drops below altitude 10° 13:34:11 10° 13° (NNE) 2,704 7.1 -13.0°
Sets 13:36:42 0° 11° (N) 3,649 7.8 -13.5°
